"Pseudo-MPEC" for P11DPl0

Created 2023 Mar 27 10:22:12 UT using Find_Orb

Click here for an explanation of pseudo-MPECs

 
 Astrometry: 
     P11DPl0* C2023 03 252^tiw!:`R$pArKACj;.v%e\^wZ@0[9Bsgeph%1@)';U,\xwwasf8F51
     P11DPl0  C2023 03 25RJi2jyG]ut$`kleVfH7\$DVAp=n2Astrometry],-u+QNRhI'lcLF51
     P11DPl0  C2023 03 258N(%vsaT=Ye^O\,;@84'g?3oK!,H[X`/:?`4Z:Qn%jCv9\i'=VPLF51
     P11DPl0  C2023 03 25%,D2Tjni+4Osredacted;nDJ#n`?kS!Z4sj4I9U;clickKcupXdUF51
     P11DPl0  C2023 03 25lnN:8RW;Gq[8$6L8/33?BNE,#;dgp0[x$sP5iw,J5d:aV$X\7kY?F52
     P11DPl0  C2023 03 25!eB)cfmydrL:-;ln?[24wi8UKOF'.?(N;x1$d%Where(w*w*yiR?F52
     P11DPl0 1C2023 03 25.82303 09 58 56.30 +30 14 50.2    ~3PLq 20.7 VXNEOCP033
     P11DPl0 1C2023 03 25.82488 09 58 57.06 +30 14 48.4    ~3PLq 21.0 VXNEOCP033
     P11DPl0 1C2023 03 25.82673 09 58 57.77 +30 14 47.0    ~3PLq 20.9 VXNEOCP033
     P11DPl0 2C2023 03 25JeSGTkVYt;\Aw06vBo:GLCxV@\Vc5O3T\5b'kA!H6]C4nZ0jO$k!095
     P11DPl0 bC2023 03 25!i2AKB^:KLn-aV4,R5ThLxt2fdaE/Fx(BJ$OR36mi$um.d@`@:raL01
     P11DPl0 2C2023 03 25Y3,h*RgftkkU/t-v1U@i/;]=%#$qPaPGsS:h(+3]n.DEsyeb.E`^095
     P11DPl0 2C2023 03 26`t4G$,Hw.!7w)v0fErejkdU.M[-SA07[*%\b2*`@,wqit(V?ucF_095
     P11DPl0 bC2023 03 26TfSa?OKV0/6mrHwXB]/:M]v]VvX?vq]*^kF#@q4*'$wyLO1nf@b9L01
     P11DPl0 2C2023 03 26$^PZ5.T1Zk\buVYforca:g^9mg$bTEJG#cx7x`k/@]%8?ghv!Q7;095
     P11DPl0 bC2023 03 26?u/f=3Nq2S5pMn1#QU)DOJ2%K=A\7P#.=Q%P^xeTHlHYee@c/o3AL01
     P11DPl0 2C2023 03 26t98jZO\dRj')pWBHwPpCSP.Yo)B$x/yMH7q\fSFD(n9D6NfZ'pB`095
     P11DPl0 2C2023 03 26eK\i$FB+HZ+V+?3unMsd=GPwOGti2EILDTtXWYYgeRgxM5%FyCmO095
     P11DPl0 KC2023 03 26tvPn@c:F?=L=rv)Z/pya7QhW4%[.t29iR]Ru$8L$hU8Q%78piZvnH21
     P11DPl0 KC2023 03 26U*N1qHgTbU$T[\CkOtp@gA/Gq/p'cTy8J0/rwr_MPm.f6y;eJ\,kH21
     P11DPl0 KC2023 03 26E-/#Cr1Bd[,NS)l%BsU6'v[kE_'QPM_F\j.NfM/M!explanationH21
     P11DPl0 KC2023 03 27.20152910 08 38.238+29 52 48.25   ~3R5M 21.24GVNEOCPI52
     P11DPl0 KC2023 03 27.20552010 08 39.808+29 52 43.86   ~3R5M 20.86GVNEOCPI52
     P11DPl0 KC2023 03 27.20680610 08 40.301+29 52 42.13   ~3R5M 21.32GVNEOCPI52

Station data:
(033) Karl Schwarzschild Observatory, Tautenburg  (N50.980137 E11.711240)
   Germany.  Observers S. Melnikov, C. Hoegner, B. Stecklum. Measurer B.
   Stecklum. 1.34-m f/3 Schmidt + CCD.
(095) Crimea-Nauchnij  (N44.726555 E34.016000)  Ukraine.  Observers V.
   Rumyantsev, V. V. Rumyantsev. Measurers A. Novichonok, A. Zhornichenko.
   0.35-m f/5 reflector + CCD0.64-m reflector + CCD.
(F51) Pan-STARRS 1, Haleakala  (N20.707234 W156.255910)  US/Hawaii.
   Observers J. Bulger, T. Lowe, A. Schultz, M. Willman. Measurers K.
   Chambers, S. Chastel, T. de Boer, L. Denneau, J. Fairlamb, H. Flewelling,
   M. Huber, C.-C. Lin, E. Magnier, Y. Ramanjooloo, R. Wainscoat, R. Weryk.
   1.8-m Ritchey-Chrétien + CCD.
(F52) Pan-STARRS 2, Haleakala  (N20.707382 W156.255910)  US/Hawaii.
   Observers J. Bulger, T. Dukes, T. Lowe, A. Schultz, M. Willman. Measurers
   K. Chambers, S. Chastel, T. de Boer, L. Denneau, J. Fairlamb, H.
   Flewelling, M. Huber, C.-C. Lin, E. Magnier, Y. Ramanjooloo, R. Wainscoat,
   R. Weryk. 1.8-m Ritchey-Chrétien + CCD.
(H21) Astronomical Research Observatory, Westfield  (N39.483054 W87.968270)
   US/Illinois.  Observer R. Holmes. Measurers S. Foglia, L. Buzzi, T.
   Linder, R. Holmes. 0.76-m f/3.0 astrograph + CCD0.81-m f/4.0 astrograph +
   CCD0.61-m f/4.5 astrograph + CCD0.40-m f/5.32 astrograph + CCD.
(I52) Steward Observatory, Mt. Lemmon Station  (N32.442544 W110.788920)
   US/Arizona.  Observers T. A. Pruyne, B. M. Africano, E. J. Christensen, G.
   A. Farneth, D. C. Fuls, A. R. Gibbs, A. D. Grauer, H. Gröller, J. A.
   Johnson, R. A. Kowalski, S. M. Larson, G. J. Leonard, D. Rankin, R. L.
   Seaman, F. C. Shelly, K. W. Wierzchoś. 1.0-m reflector + CCD.
(L01) Višnjan Observatory, Tičan  (N45.290897 E13.749300)  Croatia.
   Observers K. Korlević, D. Pujagic, V. Dobos. Measurers D. Pujagic, K.
   Korlević. 1.0-m f/2.9 reflector + CCD.

Orbital elements:  P11DPl0
   Perihelion 2023 Feb 5.96962 +/- 0.0978 TT = 23:16:14 (JD 2459981.46962)
Epoch 2023 Mar 27.0 TT = JDT 2460030.5   Earth MOID: 0.0300      AutoNEOCP
M  22.51014459 +/- 0.14             (J2000 ecliptic)
n   0.45910601 +/- 0.00208          Peri.  328.23681 +/- 0.14
a   1.66415609 +/- 0.00503          Node   158.72702 +/- 0.038
e   0.4054782 +/- 0.00159           Incl.    6.77924 +/- 0.015
P   2.15/784.12d           H 23.30  G  0.15   U  8.6
q 0.98937693 +/- 0.000484    Q 2.33893524 +/- 0.0097
23 of 24 observations 2023 Mar. 25-27 (46.9 hr); mean residual 0".42
Residuals in arcseconds: 
230325 F51  .11+  .13+    230325 033  .68-  .08+    230326 095  .42+  .10-    
230325 F51  .14-  .06+    230325 095  .30+  .38+    230326 095  .51+  .21+    
230325 F51  .02-  .11+    230325 L01  1.5-  .73-    230326 H21  .12+  .25+    
230325 F51  .00   .02-    230325 095  .71+  .11-    230326 H21  .13+  .10+    
230325 F52  .15-  .27-    230326 095  .12+  .42+    230326 H21  .30+  .04+    
230325 F52  .24+  .02-    230326 L01  1.1-  .15+    230327 I52  .22-  .40+    
230325 033  .49+  .02+    230326 095  .92+  .42+    230327 I52  .15+  .05+    
230325 033  .23+  .15-    230326 L01( 1.5-  1.0+)   230327 I52  .11+  .38-    

Ephemerides (geocentric):
Date (UTC) HH   RA             Dec           delta  r     elong  mag " sig PA
---- --------  ------------   ------------  ------ ------ -----  --- --------
2023 03 27 10  10 10 05.087   +29 49 08.46  .16737 1.1219 134.8 21.3 .125 138
2023 03 27 11  10 10 21.866   +29 48 25.15  .16757 1.1221 134.8 21.3 .136 135
2023 03 27 12  10 10 38.609   +29 47 41.71  .16777 1.1223 134.8 21.3 .147 132
2023 03 27 13  10 10 55.316   +29 46 58.16  .16798 1.1225 134.9 21.3 .158 130
2023 03 27 14  10 11 11.986   +29 46 14.50  .16818 1.1227 134.9 21.3 .171 128
2023 03 27 15  10 11 28.621   +29 45 30.73  .16838 1.1229 134.9 21.3 .183 126
2023 03 27 16  10 11 45.219   +29 44 46.85  .16858 1.1231 134.9 21.3 .197 124
2023 03 27 17  10 12 01.782   +29 44 02.86  .16879 1.1233 134.9 21.3 .210 123
2023 03 27 18  10 12 18.309   +29 43 18.75  .16899 1.1235 134.9 21.3 .224 121
2023 03 27 19  10 12 34.801   +29 42 34.54  .16919 1.1237 135.0 21.3 .239 120
2023 03 27 20  10 12 51.257   +29 41 50.22  .16940 1.1239 135.0 21.3 .254 119
2023 03 27 21  10 13 07.677   +29 41 05.80  .16960 1.1241 135.0 21.3 .269 118
2023 03 27 22  10 13 24.062   +29 40 21.27  .16980 1.1243 135.0 21.3 .285 117
2023 03 27 23  10 13 40.411   +29 39 36.63  .17001 1.1245 135.0 21.3 .301 116
2023 03 28 00  10 13 56.726   +29 38 51.89  .17021 1.1247 135.0 21.3 .318 116
2023 03 28 01  10 14 13.005   +29 38 07.04  .17042 1.1249 135.0 21.3 .334 115
2023 03 28 02  10 14 29.249   +29 37 22.09  .17062 1.1251 135.1 21.3 .352 114
2023 03 28 03  10 14 45.458   +29 36 37.04  .17083 1.1253 135.1 21.3 .369 114
2023 03 28 04  10 15 01.632   +29 35 51.89  .17103 1.1255 135.1 21.3 .387 113
2023 03 28 05  10 15 17.771   +29 35 06.64  .17124 1.1257 135.1 21.3 .405 113
2023 03 28 06  10 15 33.875   +29 34 21.29  .17144 1.1259 135.1 21.3 .424 112
2023 03 28 07  10 15 49.945   +29 33 35.83  .17165 1.1261 135.1 21.3 .443 112
2023 03 28 08  10 16 05.980   +29 32 50.28  .17186 1.1263 135.2 21.3 .462 111
2023 03 28 09  10 16 21.980   +29 32 04.64  .17206 1.1265 135.2 21.3 .482 111
2023 03 28 10  10 16 37.946   +29 31 18.89  .17227 1.1267 135.2 21.3 .502 111
2023 03 28 11  10 16 53.877   +29 30 33.05  .17248 1.1269 135.2 21.3 .522 110
2023 03 28 12  10 17 09.775   +29 29 47.12  .17268 1.1271 135.2 21.3 .542 110
2023 03 28 13  10 17 25.638   +29 29 01.09  .17289 1.1273 135.2 21.3 .563 110
2023 03 28 14  10 17 41.466   +29 28 14.96  .17310 1.1275 135.2 21.3 .584 109
2023 03 28 15  10 17 57.261   +29 27 28.74  .17331 1.1278 135.3 21.3 .606 109
2023 03 28 16  10 18 13.022   +29 26 42.43  .17352 1.1280 135.3 21.3 .628 109
2023 03 28 17  10 18 28.748   +29 25 56.03  .17372 1.1282 135.3 21.3 .650 109
2023 03 28 18  10 18 44.441   +29 25 09.54  .17393 1.1284 135.3 21.4 .672 108
2023 03 28 19  10 19 00.100   +29 24 22.96  .17414 1.1286 135.3 21.4 .695 108
2023 03 28 20  10 19 15.726   +29 23 36.29  .17435 1.1288 135.3 21.4 .718 108
2023 03 28 21  10 19 31.318   +29 22 49.52  .17456 1.1290 135.3 21.4 .741 108
2023 03 28 22  10 19 46.876   +29 22 02.67  .17477 1.1292 135.4 21.4 .764 108
2023 03 28 23  10 20 02.401   +29 21 15.74  .17498 1.1294 135.4 21.4 .788 107
2023 03 29 00  10 20 17.892   +29 20 28.71  .17519 1.1296 135.4 21.4 .812 107
2023 03 29 01  10 20 33.350   +29 19 41.60  .17540 1.1298 135.4 21.4 .836 107
2023 03 29 02  10 20 48.775   +29 18 54.41  .17561 1.1300 135.4 21.4 .861 107
2023 03 29 03  10 21 04.167   +29 18 07.13  .17582 1.1302 135.4 21.4 .886 107
2023 03 29 04  10 21 19.526   +29 17 19.77  .17603 1.1304 135.4 21.4 .911 107
2023 03 29 05  10 21 34.852   +29 16 32.32  .17624 1.1306 135.5 21.4 .936 106
2023 03 29 06  10 21 50.144   +29 15 44.79  .17646 1.1308 135.5 21.4 .962 106
2023 03 29 07  10 22 05.404   +29 14 57.18  .17667 1.1310 135.5 21.4 .988 106
2023 03 29 08  10 22 20.632   +29 14 09.48  .17688 1.1312 135.5 21.4 1.01 106
2023 03 29 09  10 22 35.826   +29 13 21.71  .17709 1.1314 135.5 21.4 1.04 106